Simultaneous Nadir Overpasses (SNOs) Predictions

Prediction of SNOs between AQUA and GOES-15 Satellite Orbit:

Table of predicted SNOs for the next 14.0 days since TLE Epoch: 2/24/2012
Index Date Time (AQUA) AQUA Lat,Lon GOES-15 Lat,Lon Distance(km) Time Diff (sec)
1 02/25/2012 10:38:09 0.05,-135.69 0.01,-135.43 29.36 80
2 02/27/2012 10:25:58 -0.59,-132.73 0.02,-135.45 309.86 80
3 02/27/2012 22:47:22 -0.53,-137.92 -0.02,-135.46 279.19 80
4 02/29/2012 22:35:10 0.07,-134.95 -0.02,-135.48 59.16 80
5 03/02/2012 22:22:59 0.75,-132.00 -0.02,-135.48 396.86 80
6 03/03/2012 10:44:14 0.38,-137.15 0.02,-135.48 189.84 80
7 03/05/2012 10:32:02 -0.25,-134.19 0.02,-135.48 147.26 80
8 03/05/2012 22:53:26 -0.85,-139.38 -0.02,-135.49 442.18 80
9 03/07/2012 10:19:50 -0.90,-131.23 0.02,-135.48 483.89 80
10 03/07/2012 22:41:14 -0.20,-136.42 -0.02,-135.48 105.67 80




NCC Satellite Simultaneous Nadir Overpasses (SNOs) Prediction Service
